Location: Rielasingen-Worblingen
(47.7273°N, 8.8603°E)
Time: 05:39:52
(UTC+00:00)

Daily predictions for brighter satellites

Satellite Brightness Start Highest point End
(mag) Time Altitude Azimuth Time Altitude Azimuth Time Altitude Azimuth
ATLAS 2AS CENTAUR R/B 3.2 00:09:45 42° W 00:11:45 55° NW 00:18:27 10° NE
IDEFIX/ARIANE 42P 4.1 00:12:12 10° NE 00:16:29 26° E 00:16:41 25° E
Meteor 1-5 Rocket 4.2 00:16:11 10° NNW 00:20:58 68° NW 00:20:58 68° NW
Cosmos 1953 Rocket 4.5 00:18:52 10° N 00:22:18 46° NNE 00:22:18 46° NNE
Cosmos 1980 Rocket 2.7 00:19:57 10° NW 00:24:20 47° WNW 00:24:20 47° WNW
USA 234 4.3 00:20:36 10° E 00:26:42 43° N 00:32:48 10° WNW
Cosmos 44 Rocket 4.1 00:29:47 45° E 00:29:47 45° E 00:33:51 10° NE
COSMOS 2406 3.9 00:32:29 41° ESE 00:32:34 41° ESE 00:37:56 10° NE
Meteor 2-10 4.3 00:31:04 10° NNW 00:36:02 64° WNW 00:36:02 64° WNW
Cosmos 1634 Rocket 4.0 00:35:56 60° SE 00:36:40 66° E 00:42:48 10° NNE
Cosmos 2369 3.6 00:31:08 10° NNW 00:36:37 81° WNW 00:36:37 81° WNW
Cosmos 724 4.2 00:44:50 73° SSE 00:45:05 75° ESE 00:51:03 10° NE
Cosmos 2084 4.5 00:46:23 41° N 00:46:23 41° N 00:49:34 10° NNE
Cosmos 1607 3.9 00:47:22 63° SE 00:47:47 64° ESE 00:53:57 10° NE
Cosmos 1627 Rocket 4.4 00:41:43 10° NNW 00:47:59 73° W 00:48:29 69° SW
Cosmos-2242 3.6 00:52:12 53° NNE 00:52:12 53° NNE 00:55:29 10° NNE
Cosmos 2360 Rocket 3.7 00:47:16 10° NNW 00:52:27 34° NE 00:57:35 10° ESE
Cosmos 2333 Rocket 2.8 00:48:07 10° NNW 00:53:41 53° ENE 00:57:05 23° SE
USA 281 3.3 00:51:27 31° SE 00:54:48 73° ENE 01:01:23 10° NNW
FENGYUN 3A 4.5 00:50:35 10° NNE 00:55:43 41° E 00:56:43 38° SE
Cosmos 2082 Rocket 2.2 00:59:24 64° W 00:59:54 67° WNW 01:05:38 10° NNE
Meteor 2-2 Rocket 4.1 01:02:52 72° S 01:03:27 84° E 01:09:07 10° NNE
Cosmos 2279 Rocket 4.0 01:03:59 56° SSE 01:05:21 76° E 01:11:36 10° NNE
Cosmos 2278 4.1 01:01:49 10° NNW 01:07:30 61° ENE 01:11:11 22° SE
Cosmos 2221 3.6 01:07:40 33° E 01:07:50 33° E 01:11:34 10° NNE
Cosmos 2322 Rocket 3.2 01:02:29 10° NNW 01:07:54 45° NE 01:13:19 10° SE
Cosmos 1486 Rocket 4.1 01:03:05 10° NNW 01:08:19 71° ENE 01:09:36 50° SE
NPP 4.0 01:03:37 10° NNE 01:08:56 55° E 01:09:57 47° SE
Resurs 1-4 Rocket 4.0 01:05:28 10° NE 01:09:31 22° E 01:12:17 15° SE
NOSS 3-3 (A) 3.6 01:14:12 62° SSE 01:14:44 66° SE 01:20:47 10° NE
ACS3 Solar Sail 1.9 01:11:32 10° N 01:17:27 58° WNW 01:18:33 51° WSW
Cosmos 1777 Rocket 4.1 01:13:41 10° NNW 01:18:58 75° ENE 01:20:41 43° SE
Cosmos 2219 Rocket 3.7 01:16:37 10° NNW 01:21:47 36° NE 01:26:57 10° ESE
CZ-4C R/B 2.2 01:22:06 46° WNW 01:22:41 49° NW 01:28:04 10° NE
SL-16 R/B 2.1 01:17:22 10° NNW 01:23:05 86° WSW 01:24:53 46° SSE
H-2A R/B 4.2 01:20:25 10° NE 01:24:10 20° E 01:27:56 10° SE
GP-B 4.1 01:20:08 10° NNW 01:23:25 35° NW 01:23:25 35° NW
Cosmos 1271 Rocket 3.6 01:27:38 39° ENE 01:27:38 39° ENE 01:30:32 10° NNE
Meteor 1-14 Rocket 4.2 01:24:33 10° N 01:30:20 79° ENE 01:32:37 38° SSE
SL-4 R/B 2.7 01:31:34 42° E 01:31:34 42° E 01:34:12 10° ESE
ATLAS 3B R/B 3.9 01:24:23 10° NW 01:29:24 26° W 01:29:24 26° W
NOSS 3-3 (C) 3.6 01:30:27 57° S 01:31:28 72° SE 01:37:38 10° NE
Cosmos 2058 Rocket 3.6 01:32:04 46° WNW 01:32:04 46° WNW 01:36:02 10° N
USA 267 3.6 01:25:39 10° ENE 01:32:01 50° SE 01:34:01 38° S
Cosmos 2266 Rocket 4.0 01:29:47 10° N 01:35:56 77° E 01:39:09 30° SSE
Gbstr 26 Del rocket 2.8 01:37:23 68° ENE 01:37:23 68° ENE 01:40:48 10° ESE
Cosmos 1470 3.4 01:33:55 10° N 01:36:16 42° N 01:36:16 42° N
USA 290 4.2 01:37:48 22° E 01:37:48 22° E 01:40:08 10° NE
Cosmos 1536 4.4 01:45:08 10° NNW 01:46:48 21° NW 01:46:48 21° NW
Cosmos 2333 4.5 01:42:52 10° NNW 01:48:32 68° ENE 01:54:13 10° SE
DMSP B5D2-2 4.3 01:45:23 20° SSE 01:48:58 69° ENE 01:54:08 10° N
Cosmos 1812 Rocket 3.5 01:49:34 56° SSE 01:50:24 75° E 01:54:45 10° NNE
Meteor 2-6 Rocket 4.3 01:49:06 46° SW 01:50:42 65° WNW 01:56:35 10° N
NOSS 3-4 (A) 4.3 01:46:37 10° NW 01:53:10 63° NE 02:00:55 10° SE
NOSS 3-4 (C) 4.3 01:47:09 10° NW 01:53:43 62° NE 02:01:29 10° SE
ISS -1.2 01:56:14 13° SE 01:56:14 13° SE 01:57:26 10° ESE
IDEFIX/ARIANE 42P 2.9 01:51:11 10° N 01:56:10 48° WNW 01:57:22 40° WSW
Meteor 2-20 4.5 01:54:40 30° S 01:57:51 80° E 02:04:02 10° NNE
COSMOS 2441 4.2 01:53:28 10° NNE 01:58:17 89° WNW 01:59:44 46° SSW
Envisat 3.3 01:53:51 10° NNE 01:58:52 60° E 02:01:23 29° S
Aureole 1 Rocket 4.0 01:55:54 10° NNW 01:59:56 50° ENE 02:04:58 10° SE
Cosmos 2084 Rocket 3.5 01:59:17 10° NW 02:03:30 78° NE 02:07:44 10° SE
ATLAS 2AS CENTAUR R/B 4.5 01:58:44 10° WNW 02:04:09 24° NNW 02:09:32 10° NE
Iridium 4 Rocket 3.3 02:03:00 35° S 02:05:00 82° E 02:10:05 10° N
MOZ.5/SAFIR/RUBIN 5/SL-8 3.7 02:05:32 43° SSW 02:06:53 63° WSW 02:11:31 10° NNW
Meteor 1-27 Rocket 4.3 02:03:31 20° S 02:07:37 61° E 02:13:26 10° NNE
H-2A R/B 2.4 02:06:25 29° SSE 02:08:07 66° ENE 02:11:42 10° N
USA 234 3.4 02:02:44 10° ESE 02:09:16 77° NNE 02:15:49 10° NW
Cosmos 1975 3.1 02:07:29 10° NNW 02:10:36 43° WNW 02:10:36 43° WNW
Cosmos 990 Rocket 3.8 02:06:30 10° NNW 02:11:38 75° WSW 02:15:53 15° SSE
ADEOS II 2.9 02:07:20 10° NNE 02:12:24 47° E 02:16:28 15° S
Cosmos 1763 Rocket 3.5 02:13:16 37° SW 02:15:23 76° WNW 02:20:43 10° NNE
Cosmos 1238 Rocket 2.9 02:15:06 38° SE 02:15:39 44° E 02:18:31 10° NNE
COSMOS 2406 4.1 02:14:30 27° W 02:16:54 38° NW 02:22:16 10° NNE
ALOS 2.4 02:12:26 10° NNE 02:16:59 66° ESE 02:19:31 25° S
COSMOS 2428 4.4 02:15:34 10° NNW 02:20:49 35° NE 02:26:00 10° ESE
SL-16 R/B 3.9 02:15:05 10° SE 02:20:50 40° ENE 02:26:37 10° N
CZ-2D R/B 2.2 02:15:45 10° NNE 02:21:02 75° ESE 02:24:32 22° S
ADEOS Rocket 3.7 02:16:35 10° N 02:23:59 60° WNW 02:28:49 24° SW
Spot 2 4.3 02:23:05 10° SSE 02:27:51 86° WSW 02:32:51 10° NNW
Cosmos 1898 Rocket 4.2 02:24:37 10° NNW 02:29:43 55° ENE 02:34:46 10° SE
Cosmos 1354 Rocket 4.2 02:29:01 10° NNW 02:34:06 49° WSW 02:38:18 15° S
Cosmos 2360 Rocket 2.4 02:31:10 10° NW 02:36:35 46° WSW 02:41:57 10° S
Cosmos 2333 Rocket 3.1 02:32:55 10° NW 02:37:38 28° WSW 02:39:00 25° SW
SL-19 R/B 4.4 02:32:35 10° NNE 02:38:17 80° ESE 02:43:26 15° SSW
Alouette 2 Rocket 3.1 02:34:21 10° NNW 02:38:27 82° WSW 02:41:40 12° S
USA 305 4.0 02:38:24 10° NNW 02:38:36 10° NNW 02:38:54 10° N
USA 281 4.1 02:38:17 23° WSW 02:39:50 25° W 02:45:07 10° NW
EP 1 4.4 02:37:48 10° NW 02:40:24 73° NE 02:43:13 10° SE
Cosmos 540 Rocket 3.8 02:41:18 26° SW 02:43:58 49° WNW 02:49:00 10° NNE
Meteor 2-10 Rocket 4.0 02:38:58 10° N 02:44:03 62° ENE 02:49:16 10° SSE
Cosmos 2221 3.8 02:43:58 21° W 02:44:55 23° WNW 02:48:15 10° NNW
Cosmos 2082 Rocket 4.2 02:41:32 10° WNW 02:45:07 17° NW 02:48:42 10° N
H-2A R/B 3.7 02:42:18 10° NE 02:45:48 28° E 02:49:15 10° SSE
Cosmos 1553 Rocket 4.4 02:41:00 10° S 02:47:06 64° E 02:53:19 10° NNE
USA 276 3.0 02:50:08 17° ESE 02:50:08 17° ESE 02:50:43 10° ESE
Resurs 1-4 Rocket 2.2 02:44:26 10° N 02:49:40 59° WNW 02:53:19 20° SW
Cosmos 468 Rocket 4.0 02:46:38 21° SSW 02:50:12 75° WNW 02:55:31 10° NNE
Cosmos 2322 Rocket 2.8 02:46:47 10° NW 02:51:46 33° WSW 02:56:37 11° SSW
BREEZE-M DEB (TANK) 3.2 02:50:12 15° WNW 02:52:36 85° NNE 03:01:12 10° ESE
DNEPR-1 R/B 4.3 02:49:36 10° NW 02:54:58 62° WSW 03:01:30 10° SSE
CZ-2C R/B 4.5 02:53:03 10° NE 02:57:04 25° E 03:00:57 10° SSE
Cosmos 1766 Rocket 3.7 02:53:23 10° NNW 02:57:37 51° W 03:01:41 11° S
Cosmos 1833 4.4 02:53:59 20° SW 02:57:55 60° WNW 03:03:34 10° NNE
ACS3 Solar Sail 3.8 02:56:30 10° NNW 02:58:39 12° NW 03:00:48 10° WNW
Cosmos 1271 Rocket 4.4 03:01:02 14° W 03:01:42 14° WNW 03:03:43 10° NNW
CRYOSAT 2 4.3 02:58:41 10° S 03:03:32 68° W 03:08:25 10° N
H-2A R/B 2.1 02:58:46 10° N 03:03:50 63° WNW 03:08:28 13° SSW
Cosmos 2219 Rocket 2.5 03:00:30 10° NW 03:05:49 44° WSW 03:11:08 10° S
Cosmos 2237 Rocket 4.1 03:00:38 10° NNW 03:05:49 34° NE 03:10:57 10° ESE
SL-16 R/B 3.8 03:03:22 10° WNW 03:06:17 14° W 03:06:39 14° W
SL-4 R/B 2.7 03:05:08 15° W 03:07:31 27° SW 03:10:45 10° SSE
Meteor 2-11 Rocket 4.4 03:02:21 10° NNW 03:08:27 67° W 03:14:31 10° S
SL-14 R/B 3.9 03:04:45 10° S 03:08:34 57° E 03:12:24 10° NNE
CZ-3 Stage 3 4.3 03:05:05 15° SW 03:11:24 34° SSE 03:33:07 10° ESE
USA 290 3.7 03:10:18 17° W 03:11:39 22° WNW 03:14:15 10° N
CZ-4C R/B 4.1 03:08:39 10° WNW 03:12:23 20° NNW 03:16:49 10° NNE
ARGOS 3.3 03:09:27 10° NNE 03:14:52 79° ESE 03:20:14 10° S
USA 267 3.5 03:08:40 10° NE 03:15:11 66° NNW 03:21:22 11° WSW
Cosmos 1408 Rocket 4.2 03:11:32 10° N 03:15:47 59° ENE 03:19:59 10° SSE
Cosmos 1745 Rocket 4.4 03:10:23 10° N 03:16:33 66° ENE 03:22:37 10° SSE
METEOR-M 4.1 03:12:09 10° N 03:17:28 69° WNW 03:22:44 10° SSW
Gbstr 26 Del rocket 3.6 03:19:51 10° W 03:22:59 26° SW 03:26:11 10° SSE
Cosmos 2322 3.7 03:20:34 10° NNW 03:26:17 78° WSW 03:31:58 10° SSE
NOSS 3 (A) 4.5 03:29:30 10° NW 03:31:50 71° NE 03:34:52 10° SE
ISS -3.6 03:29:12 13° SW 03:32:08 67° SSE 03:35:31 10° ENE
Envisat 4.4 03:33:35 10° NNW 03:37:23 22° WNW 03:41:10 10° WSW
BREEZE-M DEB (TANK) 2.3 03:31:26 10° WSW 03:37:43 69° SSE 03:40:26 10° ENE
Meteor 2-4 Rocket 4.3 03:34:38 10° SW 03:39:32 35° WNW 03:44:26 10° N
Cosmos 1461 3.0 03:37:00 10° SW 03:40:35 49° NW 03:44:14 10° NNE
H-2A R/B 4.2 03:42:26 10° W 03:42:29 10° W 03:42:31 10° W
Meteor 1-28 Rocket 3.4 03:40:04 10° SSE 03:43:17 63° ENE 03:46:32 10° N
NOSS 3-4 (A) 4.4 03:37:39 10° NW 03:43:59 38° WSW 03:51:14 10° S
NOSS 3-4 (C) 4.3 03:38:11 10° NW 03:44:32 39° WSW 03:51:49 10° S
AQUA 4.0 03:40:27 10° N 03:45:02 56° WNW 03:49:36 10° SSW
NOSS 0 Rocket 3.9 03:40:25 10° NNW 03:46:38 81° WSW 03:52:47 10° SSE
Cosmos 1151 Rocket 2.9 03:44:11 10° SSW 03:48:23 75° WNW 03:52:38 10° N
PAYLOAD A 4.4 03:44:24 10° NNE 03:49:06 60° ESE 03:53:42 10° S
Cosmos 1500 Rocket 3.6 03:46:49 10° NNW 03:51:11 66° W 03:55:33 10° S
ADEOS II 3.2 03:47:19 10° N 03:51:42 28° WNW 03:56:05 10° WSW
USA 234 3.7 03:46:35 10° SSE 03:52:37 39° SW 03:58:41 10° WNW
CZ-3 R/B 4.0 03:50:58 10° WSW 04:09:07 28° SSW 04:16:24 10° SSE
